Location: U-46 Planetarium
(42.0300°N, 88.2740°W)
Time: 02:10:36
(UTC-05:00)

SPOT 3 Rocket - Pass Details

Date: 16 December 2017
Orbit: 779 x 794 km, 98.9° (Epoch: 19 July)

Event Time Altitude Azimuth Distance (km) Brightness Sun altitude
Rises 17:52:42 0° 153° (SSE) 3,266 6.7 -16.0°
Reaches altitude 10° 17:55:03 10° 150° (SSE) 2,339 5.9 -16.4°
Maximum altitude 18:00:06 59° 72° (ENE) 906 3.5 -17.3°
Drops below altitude 10° 18:05:10 10° 354° (N) 2,346 5.9 -18.3°
Sets 18:07:31 0° 351° (N) 3,277 6.7 -18.7°
